Location: Boiro
(42.6475°N, 8.8834°W)
Time: 00:56:19
(UTC+01:00)

Vanguard 2 Rocket - Pass Details

Date: 15 December 2021
Orbit: 553 x 3325 km, 32.9° (Epoch: 26 January)

Event Time Altitude Azimuth Distance (km) Brightness Sun altitude
Rises 20:59:19 0° 256° (WSW) 3,149 10.8 -31.5°
Reaches altitude 10° 21:02:11 10° 236° (SW) 2,492 9.8 -32.0°
Maximum altitude 21:06:01 18° 195° (SSW) 2,382 9.1 -32.7°
Enters shadow 21:08:43 15° 171° (S) 2,855 9.3 -33.2°
